Regional Weather Roundup
Issued by NWS

Home | Current Version | Previous Version | Text Only | Print | Product List | Glossary Off
Versions: 1 2 3 4 5 6 7 8 9 10 11 12 13 14 15 16 17 18 19 20 21 22 23 24 25 26 27 28 29 30 31 32 33 34 35 36 37 38 39 40 41 42 43 44 45 46 47 48 49 50

000
ASUS43 KDTX 140001
RWRMI
MICHIGAN HOURLY REGIONAL WEATHER ROUNDUP
NATIONAL WEATHER SERVICE DETROIT/PONTIAC MI
800 PM EDT SUN JUL 13 2014

NOTE: "FAIR" INDICATES FEW OR NO CLOUDS BELOW 12,000 FEET WITH NO
SIGNIFICANT WEATHER AND/OR OBSTRUCTION TO VISIBILITY.

MIZ047>049-052>055-059>063-066>070-074>076-081>083-140100-
SOUTHEAST LOWER MICHIGAN

CITY           SKY/WX    TMP DP  RH WIND       PRES   REMARKS
ADRIAN         SUNNY     80  62  54 W8        29.90R
6HR MIN TEMP:  79; 6HR MAX TEMP:  83;

ALMA           SUNNY     75  61  61 W8        29.87R
ANN ARBOR      SUNNY     79  57  46 W5        29.89R
BAD AXE        MOSUNNY   75  60  60 NW7       29.85R
6HR MIN TEMP:  75; 6HR MAX TEMP:  79;

CARO           SUNNY     77  63  61 SW7       29.85R
DETROIT CITY   SUNNY     84  55  36 W9        29.87R
6HR MIN TEMP:  83; 6HR MAX TEMP:  87;

DETROIT        MOSUNNY   80  58  46 W8        29.88R
6HR MIN TEMP:  80; 6HR MAX TEMP:  85;

FLINT          SUNNY     79  59  50 W13G18    29.87R
6HR MIN TEMP:  79; 6HR MAX TEMP:  83;

GROSSE ILE     SUNNY     82  61  47 W9        29.87R
HILLSDALE      SUNNY     78  57  49 W5        29.92R
6HR MIN TEMP:  77; 6HR MAX TEMP:  80;

HOWELL         SUNNY     76  57  51 W6        29.89R
6HR MIN TEMP:  76; 6HR MAX TEMP:  81;


CITY           SKY/WX    TMP DP  RH WIND       PRES   REMARKS
JACKSON        SUNNY     77  58  51 W3        29.90R
6HR MIN TEMP:  77; 6HR MAX TEMP:  82;

LAMBERTVILLE   SUNNY     81  61  50 W7        29.90R
LANSING        SUNNY     77  60  55 W8        29.89R
6HR MIN TEMP:  77; 6HR MAX TEMP:  80;

LAPEER         FAIR      77  58  52 W7        29.87R
MASON          SUNNY     77  59  54 W3        29.89S
MONROE         MOSUNNY   81  63  54 W6        29.87R
MT. CLEMENS    MOSUNNY   80  60  49 W9        29.85R
6HR MIN TEMP:  80; 6HR MAX TEMP:  85;

PONTIAC        SUNNY     78  57  48 W9        29.88R
6HR MIN TEMP:  78; 6HR MAX TEMP:  83;

PORT HOPE        N/A     67  58  72 NE16      29.85R
6HR MIN TEMP:  67; 6HR MAX TEMP:  80;

PORT HURON     SUNNY     77  61  57 W5        29.86R
TRI CITIES     PTSUNNY   77  64  64 W12       29.85R
6HR MIN TEMP:  77; 6HR MAX TEMP:  82;

TROY           SUNNY     81  54  39 W9        29.89R
SAGINAW HB     PTSUNNY   77  61  57 W6        29.85R
$$
MIZ043>046-050>051-056>058-064>065-071>073-077>080-140100-
SOUTHWEST LOWER MICHIGAN

CITY           SKY/WX    TMP DP  RH WIND       PRES   REMARKS
BATTLE CREEK   SUNNY     78  61  55 W7        29.90S
6HR MIN TEMP:  78; 6HR MAX TEMP:  81;

BENTON HARBOR  SUNNY     77  59  53 S6        29.88S
6HR MIN TEMP:  72; 6HR MAX TEMP:  79;

BIG RAPIDS     MOSUNNY   72  63  73 SW7       29.87S
6HR MIN TEMP:  71; 6HR MAX TEMP:  79;

COLDWATER      SUNNY     78  61  56 W5        29.91S
6HR MIN TEMP:  77; 6HR MAX TEMP:  82;

FREMONT        MOCLDY    72  64  78 SW9       29.86S
6HR MIN TEMP:  72; 6HR MAX TEMP:  76;

HOLLAND        PTSUNNY   78  62  57 S3        29.88S
6HR MIN TEMP:  75; 6HR MAX TEMP:  80;

GRAND RAPIDS   MOSUNNY   77  61  57 W9        29.88S
6HR MIN TEMP:  75; 6HR MAX TEMP:  80;

IONIA          FAIR      76  62  62 W7        29.88R
KALAMAZOO      SUNNY     78  59  51 W6        29.90R
6HR MIN TEMP:  78; 6HR MAX TEMP:  82;

LUDINGTON      SUNNY     69  64  82 W3        29.87R
6HR MIN TEMP:  69; 6HR MAX TEMP:  74; 6HR PCP:  0.01;

MARSHALL       SUNNY     76  60  56 W6        29.89S
MOUNT PLEASANT SUNNY     74  62  66 W7        29.86R
6HR MIN TEMP:  74; 6HR MAX TEMP:  81;

MUSKEGON       PTSUNNY   73  64  73 SW10      29.88S
6HR MIN TEMP:  72; 6HR MAX TEMP:  77;

SOUTH HAVEN    SUNNY     78  64  60 SW5       29.88S
$$
MIZ016>042-140100-
NORTHERN LOWER MICHIGAN

CITY           SKY/WX    TMP DP  RH WIND       PRES   REMARKS
ALPENA         SUNNY     70  49  47 NW9       29.85R
6HR MIN TEMP:  70; 6HR MAX TEMP:  78;

BEAVER ISLAND  SUNNY     68  52  55 SE3       29.85S
6HR MIN TEMP:  66; 6HR MAX TEMP:  72;

BELLAIRE       SUNNY     71  48  45 CALM      29.86S
6HR MIN TEMP:  70; 6HR MAX TEMP:  73;

CADILLAC       SUNNY     71  51  48 W8        29.87S
CHARLEVOIX     SUNNY     68  52  55 CALM      29.89R
6HR MIN TEMP:  67; 6HR MAX TEMP:  70;

FRANKFORT      SUNNY     70  58  66 W5        29.86R
GAYLORD        SUNNY     67  47  48 NW6       29.88R
6HR MIN TEMP:  67; 6HR MAX TEMP:  71;

GRAYLING       SUNNY     68  47  47 NW9       29.89R
6HR MIN TEMP:  68; 6HR MAX TEMP:  75;

HARBOR SPRINGS SUNNY     66  58  75 CALM      29.85R
HOUGHTON LAKE  SUNNY     71  55  56 NW10      29.88R
6HR MIN TEMP:  71; 6HR MAX TEMP:  76;

MANISTEE       SUNNY     72  55  56 NW3       29.87S
OSCODA         SUNNY     76  48  37 NW9       29.84R
PELLSTON       SUNNY     69  45  41 W5        29.86S
6HR MIN TEMP:  68; 6HR MAX TEMP:  72;

ROGERS CITY    SUNNY     64  53  67 NE6       29.86R
TRAVERSE CITY  MOSUNNY   70  50  49 NE6       29.85R
6HR MIN TEMP:  70; 6HR MAX TEMP:  78;

$$
MIZ007>008-015-140100-
EASTERN UPPER MICHIGAN

CITY           SKY/WX    TMP DP  RH WIND       PRES   REMARKS
KINROSS        SUNNY     64  46  52 N9        29.84S
6HR MIN TEMP:  64; 6HR MAX TEMP:  66;

MACKINAC ISLAN SUNNY     65  50  58 SW8       29.84R
6HR MIN TEMP:  65; 6HR MAX TEMP:  69;

NEWBERRY       SUNNY     65  45  48 NW7       29.84R
6HR MIN TEMP:  65; 6HR MAX TEMP:  69;

S. S. MARIE    SUNNY     64  45  49 NW7       29.84R
6HR MIN TEMP:  62; 6HR MAX TEMP:  66;

$$
MIZ004>006-011>014-085-140100-
CENTRAL UPPER MICHIGAN

CITY           SKY/WX    TMP DP  RH WIND       PRES   REMARKS
MANISTIQUE     PTSUNNY   65  52  61 S5        29.83S
ESCANABA       MOSUNNY   70  50  49 CALM      29.83S
6HR MIN TEMP:  70; 6HR MAX TEMP:  73;

MENOMINEE      SUNNY     73  46  38 NW5       29.84R
6HR MIN TEMP:  73; 6HR MAX TEMP:  75;

SAWYER-GWINN   PTSUNNY   68  46  45 W3        29.84S
$$
MIZ001>003-009>011-084-140100-
WESTERN UPPER MICHIGAN

CITY           SKY/WX    TMP DP  RH WIND       PRES   REMARKS
IRON MOUNTAIN  PTSUNNY   70  45  40 W7        29.84S
6HR MIN TEMP:  70; 6HR MAX TEMP:  75;

HOUGHTON       PTSUNNY   64  46  52 W13       29.80S
6HR MIN TEMP:  64; 6HR MAX TEMP:  69;

COPPER HARBOR    N/A     68  45  43 VRB7G16   29.78S
6HR MIN TEMP:  66; 6HR MAX TEMP:  70;

IRONWOOD       CLOUDY   N/A N/A N/A W13       29.82R
$$

ABBREVIATIONS USED IN REMARKS
   TC - TEMPERATURE IN CELSIUS
  WCI - WIND CHILL INDEX
   HX - HEAT INDEX
  VSB - VISIBILITY




USA.gov is the U.S. government's official web portal to all federal, state and local government web resources and services.